Date String (YYYY-MM-DD hh:mm:ss) UTC,Instrument flags,Ambient pressure (hPa),Sample flow (lpm),Bypass flow (lpm),Sample temperature (°C),Ambient temperature (°C),ASC tube jacket temperature (°C),LED temperature (°C),Box temperature (°C),Sample RH (%),Span deviation,Mass concentration (μg/m³),Mass concentration (μg/m³),Mass concentration (μg/m³)
DateTimeUTC,F1_M11,P_M11,Q1_M11,Q2_M11,T1_M11,T2_M11,T3_M11,T4_M11,T5_M11,U1_M11,ZSPAN_M11,X0_M11,X2_M11,X1_M11
2022-04-10 16:00:00,,0815.4,4.99,0.00,23.1,21.9,00.0,32.1,24.8,08.4,0000.0,0012.98,0004.50,0002.64
2022-04-10 16:01:00,,0815.3,5.00,0.00,23.1,21.9,00.0,32.1,24.9,08.1,0000.0,0012.58,0004.51,0002.64
2022-04-10 16:02:00,,0815.3,5.03,0.00,23.2,21.9,00.0,32.1,24.9,08.1,0000.0,0011.76,0004.44,0002.64
2022-04-10 16:03:00,,0815.4,4.99,0.00,23.2,21.9,00.0,32.1,24.9,07.5,0000.0,0011.97,0004.51,0002.65
2022-04-10 16:04:00,,0815.3,4.99,0.00,23.2,21.9,00.0,32.1,24.9,07.2,0000.0,0012.11,0004.58,0002.67
2022-04-10 16:05:00,,0815.6,5.01,0.00,23.2,21.9,00.0,32.1,24.9,06.9,0000.0,0012.12,0004.58,0002.68
2022-04-10 16:06:00,,0815.6,5.01,0.00,23.2,21.9,00.0,32.1,24.9,07.4,0000.0,0012.11,0004.60,0002.71
2022-04-10 16:07:00,,0815.5,4.99,0.00,23.2,22.0,00.0,32.1,24.9,07.7,0000.0,0012.47,0004.61,0002.72
2022-04-10 16:08:00,,0815.3,5.01,0.00,23.2,22.0,00.0,32.1,24.8,07.8,0000.0,0012.30,0004.65,0002.72
2022-04-10 16:09:00,,0815.3,4.99,0.00,23.1,21.9,00.0,32.1,24.8,07.1,0000.0,0012.30,0004.68,0002.71
2022-04-10 16:10:00,,0815.3,5.00,0.00,23.1,21.9,00.0,32.1,24.8,06.7,0000.0,0012.08,0004.72,0002.74
2022-04-10 16:11:00,,0815.2,4.99,0.00,23.1,21.9,00.0,32.1,24.8,07.5,0000.0,0012.53,0004.75,0002.73
2022-04-10 16:12:00,,0815.3,5.00,0.00,23.0,21.9,00.0,32.1,24.7,08.2,0000.0,0012.67,0004.75,0002.73
2022-04-10 16:13:00,,0815.3,4.99,0.00,23.0,21.9,00.0,32.1,24.7,08.3,0000.0,0013.12,0004.80,0002.73
2022-04-10 16:14:00,,0815.3,5.00,0.00,23.0,21.8,00.0,32.1,24.7,08.2,0000.0,0012.83,0004.71,0002.72
2022-04-10 16:15:00,,0815.3,5.01,0.00,23.0,21.8,00.0,32.1,24.7,08.4,0000.0,0012.81,0004.66,0002.70
2022-04-10 16:16:00,,0815.6,4.99,0.00,23.0,21.8,00.0,32.1,24.7,08.4,0000.0,0012.73,0004.62,0002.69
2022-04-10 16:17:00,,0815.7,4.99,0.00,23.0,21.8,00.0,32.1,24.7,08.3,0000.0,0012.80,0004.61,0002.68
2022-04-10 16:18:00,,0815.6,5.01,0.00,23.0,21.9,00.0,32.1,24.7,08.1,0000.0,0013.34,0004.62,0002.68
2022-04-10 16:19:00,,0815.6,4.99,0.00,23.0,21.9,00.0,32.1,24.7,07.9,0000.0,0013.23,0004.60,0002.68
2022-04-10 16:20:00,,0815.3,5.00,0.00,23.0,21.9,00.0,32.0,24.7,07.3,0000.0,0013.32,0004.57,0002.67
2022-04-10 16:21:00,,0815.2,5.00,0.00,23.0,21.8,00.0,32.0,24.6,07.1,0000.0,0013.15,0004.55,0002.64
2022-04-10 16:22:00,,0815.2,5.01,0.00,22.9,21.8,00.0,32.0,24.6,07.2,0000.0,0013.05,0004.49,0002.61
2022-04-10 16:23:00,,0815.2,4.99,0.00,22.9,21.7,00.0,32.0,24.6,06.9,0000.0,0013.27,0004.49,0002.61
2022-04-10 16:24:00,,0815.5,5.00,0.00,22.8,21.7,00.0,32.0,24.5,07.4,0000.0,0012.84,0004.46,0002.61
2022-04-10 16:25:00,,0815.3,5.02,0.00,22.8,21.7,00.0,31.9,24.4,08.4,0000.0,0013.08,0004.50,0002.60
2022-04-10 16:26:00,,0815.3,4.99,0.00,22.8,21.6,00.0,31.9,24.3,08.0,0000.0,0013.00,0004.46,0002.60
2022-04-10 16:27:00,,0815.5,4.99,0.00,22.8,21.6,00.0,31.9,24.4,07.8,0000.0,0013.03,0004.46,0002.58
2022-04-10 16:28:00,,0815.4,5.01,0.00,22.8,21.6,00.0,31.9,24.4,08.4,0000.0,0013.25,0004.46,0002.56
2022-04-10 16:29:00,,0815.4,5.01,0.00,22.8,21.6,00.0,31.9,24.4,07.8,0000.0,0012.91,0004.46,0002.54
2022-04-10 16:30:00,,0815.9,4.98,0.00,22.8,21.6,00.0,31.9,24.3,07.9,0000.0,0012.86,0004.42,0002.53
2022-04-10 16:31:00,,0815.7,5.01,0.00,22.7,21.6,00.0,31.9,24.3,08.3,0000.0,0012.92,0004.46,0002.53
2022-04-10 16:32:00,,0815.3,4.99,0.00,22.7,21.6,00.0,31.8,24.4,08.2,0000.0,0012.75,0004.44,0002.53
2022-04-10 16:33:00,,0815.6,5.00,0.00,22.7,21.6,00.0,31.8,24.4,07.5,0000.0,0013.07,0004.47,0002.57
2022-04-10 16:34:00,,0816.1,5.01,0.00,22.7,21.6,00.0,31.8,24.4,08.4,0000.0,0012.29,0004.43,0002.57
2022-04-10 16:35:00,,0815.5,5.00,0.00,22.7,21.6,00.0,31.8,24.3,08.1,0000.0,0011.98,0004.39,0002.54
2022-04-10 16:36:00,,0815.3,4.99,0.00,22.7,21.6,00.0,31.8,24.3,07.1,0000.0,0011.85,0004.40,0002.55
2022-04-10 16:37:00,,0815.5,5.00,0.00,22.6,21.6,00.0,31.8,24.3,06.9,0000.0,0012.01,0004.40,0002.55
2022-04-10 16:38:00,,0815.3,5.02,0.00,22.6,21.6,00.0,31.8,24.3,07.2,0000.0,0012.44,0004.44,0002.55
2022-04-10 16:39:00,,0815.4,4.99,0.00,22.6,21.6,00.0,31.8,24.3,07.0,0000.0,0012.64,0004.46,0002.55
2022-04-10 16:40:00,,0815.6,4.99,0.00,22.6,21.5,00.0,31.7,24.3,07.1,0000.0,0012.09,0004.44,0002.54
2022-04-10 16:41:00,,0815.9,5.01,0.00,22.6,21.5,00.0,31.7,24.3,06.9,0000.0,0011.84,0004.43,0002.55
2022-04-10 16:42:00,,0815.7,5.00,0.00,22.6,21.4,00.0,31.7,24.2,06.9,0000.0,0012.06,0004.35,0002.54
2022-04-10 16:43:00,,0815.8,5.00,0.00,22.6,21.4,00.0,31.7,24.2,07.1,0000.0,0012.28,0004.36,0002.55
2022-04-10 16:44:00,,0815.7,5.00,0.00,22.6,21.4,00.0,31.7,24.1,06.8,0000.0,0011.55,0004.31,0002.55
2022-04-10 16:45:00,,0815.7,5.00,0.00,22.6,21.4,00.0,31.7,24.2,07.3,0000.0,0011.49,0004.34,0002.53
2022-04-10 16:46:00,,0816.0,5.02,0.00,22.6,21.4,00.0,31.6,24.2,07.8,0000.0,0011.86,0004.40,0002.54
2022-04-10 16:47:00,,0815.9,5.01,0.00,22.5,21.4,00.0,31.6,24.2,07.4,0000.0,0012.04,0004.36,0002.53
2022-04-10 16:48:00,,0815.7,4.99,0.00,22.6,21.4,00.0,31.6,24.2,07.2,0000.0,0012.19,0004.38,0002.52
2022-04-10 16:49:00,,0815.7,5.00,0.00,22.5,21.4,00.0,31.6,24.2,07.1,0000.0,0012.88,0004.38,0002.54
2022-04-10 16:50:00,,0815.8,5.00,0.00,22.5,21.4,00.0,31.6,24.2,07.7,0000.0,0012.98,0004.33,0002.54
2022-04-10 16:51:00,,0815.7,5.00,0.00,22.5,21.4,00.0,31.6,24.2,07.0,0000.0,0012.60,0004.29,0002.54
2022-04-10 16:52:00,,0815.4,4.98,0.00,22.4,21.4,00.0,31.6,24.2,07.2,0000.0,0012.56,0004.27,0002.53
2022-04-10 16:53:00,,0815.6,5.00,0.00,22.4,21.3,00.0,31.5,24.1,06.8,0000.0,0012.35,0004.33,0002.53
2022-04-10 16:54:00,,0815.3,5.00,0.00,22.4,21.3,00.0,31.5,24.1,06.6,0000.0,0012.06,0004.33,0002.53
2022-04-10 16:55:00,,0815.7,5.00,0.00,22.4,21.2,00.0,31.5,24.1,06.2,0000.0,0012.05,0004.31,0002.51
2022-04-10 16:56:00,,0815.5,5.01,0.00,22.3,21.1,00.0,31.5,24.0,06.6,0000.0,0012.16,0004.32,0002.52
2022-04-10 16:57:00,,0815.8,5.01,0.00,22.3,21.1,00.0,31.5,24.0,07.3,0000.0,0012.15,0004.36,0002.53
2022-04-10 16:58:00,,0815.7,4.99,0.00,22.3,21.1,00.0,31.4,23.9,07.5,0000.0,0011.97,0004.40,0002.54
2022-04-10 16:59:00,,0816.0,4.99,0.00,22.3,21.1,00.0,31.4,23.9,07.3,0000.0,0011.94,0004.34,0002.54
